• In Czech Republic
  • List of Countries
  • For 7 days
  • Water Temperature
  • Satellite Maps
  • Weather Map
  • Weather Widgets
  • user-avatar
    Login

    Hourly Weather Megri

    Today, 18 August, Friday

    Time Temperature Precipitation Wind Pressure Humidity
    00:00 +20°C° 0 mm 3 mps 623 mmHg 56%
    01:00 +19°C° 0 mm 2 mps 623 mmHg 58%
    02:00 +19°C° 0 mm 2 mps 623 mmHg 60%
    03:00 +18°C° 0 mm 2 mps 623 mmHg 62%
    04:00 +18°C° 0 mm 2 mps 623 mmHg 63%
    05:00 +18°C° 0 mm 2 mps 623 mmHg 63%
    06:00 +18°C° 0 mm 2 mps 623 mmHg 64%
    07:00 +20°C° 0 mm 2 mps 624 mmHg 57%
    08:00 +23°C° 0 mm 2 mps 625 mmHg 50%
    09:00 +24°C° 0 mm 2 mps 625 mmHg 43%
    10:00 +26°C° 0 mm 2 mps 625 mmHg 38%
    11:00 +27°C° 0 mm 2 mps 626 mmHg 33%
    12:00 +28°C° 0 mm 1 mps 626 mmHg 28%
    13:00 +29°C° 0 mm 2 mps 626 mmHg 27%
    14:00 +29°C° 0 mm 2 mps 626 mmHg 26%
    15:00 +30°C° 0 mm 2 mps 626 mmHg 25%
    16:00 +29°C° 0 mm 3 mps 625 mmHg 28%
    17:00 +28°C° 0 mm 4 mps 625 mmHg 31%
    18:00 +27°C° 0 mm 4 mps 625 mmHg 35%
    19:00 +26°C° 0 mm 4 mps 625 mmHg 39%
    20:00 +23°C° 0 mm 4 mps 625 mmHg 44%
    21:00 +22°C° 0 mm 4 mps 625 mmHg 48%
    22:00 +21°C° 0 mm 4 mps 625 mmHg 49%
    23:00 +21°C° 0 mm 3 mps 625 mmHg 50%

    Tomorrow, 19 August, Saturday

    Time Temperature Precipitation Wind Pressure Humidity
    00:00 +20°C° 0 mm 3 mps 625 mmHg 51%
    01:00 +20°C° 0 mm 3 mps 625 mmHg 53%
    02:00 +19°C° 0 mm 3 mps 625 mmHg 56%
    03:00 +19°C° 0 mm 2 mps 624 mmHg 59%
    04:00 +18°C° 0 mm 2 mps 625 mmHg 61%
    05:00 +18°C° 0 mm 2 mps 625 mmHg 62%
    06:00 +18°C° 0 mm 2 mps 625 mmHg 64%
    07:00 +20°C° 0 mm 3 mps 626 mmHg 55%
    08:00 +22°C° 0 mm 3 mps 627 mmHg 47%
    09:00 +25°C° 0 mm 3 mps 627 mmHg 39%
    10:00 +26°C° 0 mm 3 mps 627 mmHg 35%
    11:00 +28°C° 0 mm 3 mps 628 mmHg 31%
    12:00 +29°C° 0 mm 3 mps 628 mmHg 27%
    13:00 +29°C° 0 mm 3 mps 628 mmHg 26%
    14:00 +30°C° 0 mm 4 mps 628 mmHg 25%
    15:00 +32°C° 0 mm 4 mps 627 mmHg 23%
    16:00 +30°C° 0 mm 4 mps 627 mmHg 25%
    17:00 +29°C° 0 mm 5 mps 627 mmHg 26%
    18:00 +28°C° 0 mm 5 mps 626 mmHg 28%
    19:00 +26°C° 0 mm 5 mps 626 mmHg 30%
    20:00 +23°C° 0 mm 4 mps 626 mmHg 32%
    21:00 +22°C° 0 mm 4 mps 626 mmHg 34%
    22:00 +21°C° 0 mm 4 mps 626 mmHg 36%
    23:00 +21°C° 0 mm 3 mps 626 mmHg 38%

    Day after tomorrow, 20 August, Sunday

    Time Temperature Precipitation Wind Pressure Humidity
    00:00 +20°C° 0 mm 3 mps 626 mmHg 40%
    01:00 +20°C° 0 mm 3 mps 626 mmHg 42%
    02:00 +19°C° 0 mm 3 mps 626 mmHg 44%
    03:00 +19°C° 0 mm 2 mps 625 mmHg 46%
    04:00 +19°C° 0 mm 2 mps 626 mmHg 46%
    05:00 +19°C° 0 mm 2 mps 626 mmHg 47%
    06:00 +19°C° 0 mm 2 mps 626 mmHg 47%
    07:00 +21°C° 0 mm 3 mps 626 mmHg 41%
    08:00 +24°C° 0 mm 3 mps 627 mmHg 34%
    09:00 +26°C° 0 mm 3 mps 628 mmHg 28%
    10:00 +27°C° 0 mm 3 mps 628 mmHg 25%
    11:00 +29°C° 0 mm 3 mps 628 mmHg 22%
    12:00 +30°C° 0 mm 3 mps 628 mmHg 19%
    13:00 +31°C° 0 mm 3 mps 628 mmHg 19%
    14:00 +31°C° 0 mm 3 mps 628 mmHg 18%
    15:00 +33°C° 0 mm 3 mps 627 mmHg 17%
    16:00 +31°C° 0 mm 3 mps 627 mmHg 19%
    17:00 +30°C° 0 mm 4 mps 627 mmHg 21%
    18:00 +29°C° 0 mm 4 mps 626 mmHg 23%
    19:00 +27°C° 0 mm 4 mps 626 mmHg 27%
    20:00 +25°C° 0 mm 4 mps 626 mmHg 30%
    21:00 +23°C° 0 mm 4 mps 626 mmHg 34%
    22:00 +22°C° 0 mm 3 mps 626 mmHg 34%
    23:00 +21°C° 0 mm 3 mps 625 mmHg 34%

    21 August, Monday

    Time Temperature Precipitation Wind Pressure Humidity
    00:00 +21°C° 0 mm 3 mps 625 mmHg 35%
    01:00 +20°C° 0 mm 3 mps 625 mmHg 35%
    02:00 +20°C° 0 mm 2 mps 625 mmHg 35%
    03:00 +20°C° 0 mm 2 mps 625 mmHg 35%
    04:00 +20°C° 0 mm 2 mps 625 mmHg 34%
    05:00 +20°C° 0 mm 2 mps 625 mmHg 34%
    06:00 +20°C° 0 mm 2 mps 625 mmHg 34%
    07:00 +23°C° 0 mm 2 mps 626 mmHg 30%
    08:00 +25°C° 0 mm 3 mps 626 mmHg 26%
    09:00 +27°C° 0 mm 3 mps 627 mmHg 22%
    10:00 +28°C° 0 mm 2 mps 627 mmHg 21%
    11:00 +29°C° 0 mm 2 mps 627 mmHg 19%
    12:00 +31°C° 0 mm 2 mps 627 mmHg 18%
    13:00 +31°C° 0 mm 2 mps 627 mmHg 18%
    14:00 +32°C° 0 mm 2 mps 627 mmHg 18%
    15:00 +32°C° 0 mm 2 mps 627 mmHg 18%
    16:00 +31°C° 0 mm 3 mps 626 mmHg 20%
    17:00 +30°C° 0 mm 4 mps 626 mmHg 23%
    18:00 +29°C° 0 mm 4 mps 625 mmHg 25%
    19:00 +27°C° 0 mm 4 mps 625 mmHg 31%
    20:00 +26°C° 0 mm 4 mps 625 mmHg 36%
    21:00 +24°C° 0 mm 3 mps 625 mmHg 41%
    22:00 +22°C° 0 mm 3 mps 625 mmHg 43%
    23:00 +22°C° 0 mm 3 mps 625 mmHg 45%

    22 August, Tuesday

    Time Temperature Precipitation Wind Pressure Humidity
    00:00 +21°C° 0 mm 2 mps 624 mmHg 47%
    01:00 +21°C° 0 mm 2 mps 624 mmHg 48%
    02:00 +20°C° 0 mm 2 mps 624 mmHg 49%
    03:00 +20°C° 0 mm 2 mps 624 mmHg 50%
    04:00 +20°C° 0 mm 2 mps 624 mmHg 49%
    05:00 +20°C° 0 mm 2 mps 624 mmHg 48%
    06:00 +20°C° 0 mm 2 mps 624 mmHg 48%
    07:00 +23°C° 0 mm 2 mps 625 mmHg 41%
    08:00 +25°C° 0 mm 2 mps 626 mmHg 35%
    09:00 +27°C° 0 mm 2 mps 626 mmHg 28%
    10:00 +29°C° 0 mm 1 mps 627 mmHg 25%
    11:00 +30°C° 0 mm 1 mps 627 mmHg 21%
    12:00 +32°C° 0 mm 1 mps 627 mmHg 17%
    13:00 +32°C° 0 mm 1 mps 626 mmHg 17%
    14:00 +33°C° 0 mm 1 mps 626 mmHg 16%
    15:00 +34°C° 0 mm 2 mps 626 mmHg 15%
    16:00 +32°C° 0 mm 2 mps 625 mmHg 17%
    17:00 +33°C° 0 mm 3 mps 625 mmHg 20%
    18:00 +31°C° 0 mm 3 mps 625 mmHg 22%
    19:00 +29°C° 0 mm 3 mps 624 mmHg 26%
    20:00 +27°C° 0 mm 3 mps 624 mmHg 31%
    21:00 +26°C° 0 mm 3 mps 624 mmHg 36%
    22:00 +25°C° 0 mm 3 mps 624 mmHg 37%
    23:00 +24°C° 0 mm 3 mps 623 mmHg 39%

    23 August, Wednesday

    Time Temperature Precipitation Wind Pressure Humidity
    00:00 +24°C° 0 mm 2 mps 623 mmHg 40%
    01:00 +23°C° 0 mm 2 mps 623 mmHg 40%
    02:00 +23°C° 0 mm 2 mps 623 mmHg 40%
    03:00 +23°C° 0 mm 2 mps 623 mmHg 40%
    04:00 +21°C° 0 mm 2 mps 623 mmHg 39%
    05:00 +21°C° 0 mm 2 mps 623 mmHg 38%
    06:00 +21°C° 0 mm 2 mps 624 mmHg 38%
    07:00 +24°C° 0 mm 2 mps 624 mmHg 33%
    08:00 +27°C° 0 mm 2 mps 625 mmHg 28%
    09:00 +29°C° 0 mm 3 mps 626 mmHg 23%
    10:00 +30°C° 0 mm 2 mps 626 mmHg 21%
    11:00 +31°C° 0 mm 2 mps 626 mmHg 19%
    12:00 +32°C° 0 mm 2 mps 626 mmHg 17%
    13:00 +34°C° 0 mm 3 mps 626 mmHg 17%
    14:00 +34°C° 0 mm 3 mps 626 mmHg 17%
    15:00 +35°C° 0 mm 4 mps 626 mmHg 17%
    16:00 +33°C° 0 mm 4 mps 626 mmHg 20%
    17:00 +32°C° 0 mm 5 mps 625 mmHg 24%
    18:00 +29°C° 0 mm 6 mps 625 mmHg 28%
    19:00 +27°C° 0 mm 6 mps 625 mmHg 31%
    20:00 +26°C° 0 mm 5 mps 625 mmHg 34%
    21:00 +23°C° 0 mm 5 mps 625 mmHg 37%
    22:00 +23°C° 0 mm 5 mps 625 mmHg 38%
    23:00 +22°C° 0 mm 4 mps 625 mmHg 39%
    Show more